Home > Weather > Bridlington > Past weeks

Flag for United Kingdom Past Weather in Bridlington, England, United Kingdom — Yesterday and Last 2 Weeks

Now
67 °F

Mild.


Feels Like: 67 °F
Forecast: 58 / 68 °F
Wind: 5 mph from Southwest

Location: Bridlington Mrsc

Current Time: Jul 26, 2016 at 8:56:32 PM

Latest Report: Jul 26, 2016 at 8:00 PM


Visibility: N/A

Pressure: 30.01 "Hg

Humidity: 62%

Dew Point: 54 °F

Location of BridlingtonLocation

Past Weather in Bridlington — Graph

°F

Bridlington Temperature Yesterday

Maximum temperature yesterday: 70 °F (at 2:00 PM)
Minimum temperature yesterday: 57 °F (at 5:00 AM)
Average temperature yesterday: 64 °F

High & Low Weather Summary for the Past Weeks

 TemperatureHumidityPressure
High82 °F (Jul 18, 3:00 PM)97% (Jul 24, 12:00 AM)30.26 "Hg (Jul 24, 12:00 AM)
Low49 °F (Jul 14, 5:00 AM)40% (Jul 17, 5:00 PM)29.65 "Hg (Jul 11, 7:00 PM)
Average62 °F79%30.03 "Hg
* Reported Jul 11 7:00 PM — Jul 26 7:00 PM, Bridlington, Weather by CustomWeather, © 2016

Note: Actual official high and low records may vary slightly from our data, if they occured in-between our weather recording intervals... More about our weather records

Advertising

Bridlington Weather History for the Previous 24 Hours

Scroll right to see more
 ConditionsComfort  
Time TempWeatherWind HumidityBarometerVisibility
7:00 PM
Tue, Jul 26
68 °FMild.8 mph61%30.02 "HgN/A
6:00 PM69 °FMild.9 mph59%30.02 "HgN/A
5:00 PM69 °FMild.9 mph56%30.03 "HgN/A
4:00 PM70 °FMild.8 mph53%30.05 "HgN/A
3:00 PM69 °FMild.8 mph58%30.06 "HgN/A
2:00 PM68 °FMild.8 mph59%30.07 "HgN/A
1:00 PMN/A6 mphN/AN/AN/A
12:00 PMN/A8 mphN/AN/AN/A
11:00 AMN/A10 mphN/AN/AN/A
10:00 AM64 °FMild.9 mph73%30.09 "HgN/A
9:00 AM62 °FCool.8 mph79%30.09 "HgN/A
8:00 AM58 °FCool.5 mph84%30.09 "HgN/A
7:00 AM55 °FCool.5 mph88%30.09 "HgN/A
6:00 AM54 °FCool.5 mph92%30.08 "HgN/A
5:00 AM52 °FCool.5 mph93%30.09 "HgN/A
4:00 AM52 °FCool.6 mph92%30.09 "HgN/A
3:00 AM52 °FCool.5 mph90%30.08 "HgN/A
2:00 AM54 °FCool.6 mph86%30.08 "HgN/A
1:00 AM55 °FCool.7 mph82%30.08 "HgN/A
12:00 AM57 °FCool.6 mph78%30.08 "HgN/A
11:00 PM
Mon, Jul 25
59 °FCool.3 mph74%30.07 "HgN/A
10:00 PM61 °FCool.8 mph70%30.07 "HgN/A
9:00 PM63 °FMild.7 mph65%30.06 "HgN/A
8:00 PM64 °FMild.7 mph61%30.05 "HgN/A
Weather by CustomWeather, © 2016

See weather overviewHow to use our weather pages